Regional Weather Roundup
Issued by NWS Grand Forks, ND

Home | Current Version | Previous Version | Graphics & Text | Print | Product List | Glossary On
Versions: 1 2 3 4 5 6 7 8 9 10 11 12 13 14 15 16 17 18 19 20 21 22 23 24 25 26 27 28 29 30 31 32 33 34 35 36 37 38 39 40 41 42 43 44 45 46 47 48 49 50
000
ASUS43 KFGF 211610
RWRFGF
PRAIRIE TO PINES  WEATHER ROUNDUP
NATIONAL WEATHER SERVICE EASTERN NORTH DAKOTA/GRAND FORKS ND
1100 AM CDT THU AUG 21 2014

 **SATELLITE DATA USED TO AUGMENT SKY COVER AT AUTOMATED STATIONS**
 *****  WEATHER ACROSS EASTERN NORTH DAKOTA  *****

CITY           SKY/WX    TMP DP  RH WIND       PRES   REMARKS
GRAND FORKS    CLOUDY    74  67  78 SE12      29.76F
GRAND FRKS AFB CLOUDY    72  71  95 E3        29.78S
GRAND FRKS NWS   N/A     57 N/A N/A SE12        N/A
DEVILS LAKE    CLOUDY    70  64  83 SE5       29.77S
FARGO          CLOUDY    73  68  84 E7        29.76S
WAHPETON ARPT  CLOUDY    72  66  83 S3        29.78R
$$

 ***** WEATHER ACROSS CENTRAL AND WESTERN NORTH DAKOTA  *****

CITY           SKY/WX    TMP DP  RH WIND       PRES   REMARKS
BISMARCK       PTSUNNY   73  65  75 NW12      29.86R
MINOT          CLOUDY    69  63  81 NW13      29.84R
JAMESTOWN      PTSUNNY   73  67  81 W7        29.78R
MINOT AFB      CLOUDY    66  66  99 NW14      29.85R
GARRISON         N/A     68  64  87 NW8       29.86R
WILLISTON      CLOUDY    64  60  87 N10       29.93S
DICKINSON      MOSUNNY   69  63  81 NW10      29.91S
HETTINGER      SUNNY     72  63  73 NW8       29.94R
$$

 *****  OTHER AIRPORT OBSERVATIONS IN OUR AREA  *****

CITY           SKY/WX    TMP DP  RH WIND       PRES   REMARKS
WALHALLA         N/A     68  68 100 CALM      29.80S
GRAFTON AIRPOR CLOUDY    72  66  83 E7        29.78R
VALLEY CITY AR CLOUDY    72  72 100 E3        29.78R
CANDO          CLOUDY    72  66  83 E6        29.81R
CAVALIER APRT  FAIR      70  66  88 E7        29.79F
GWINNER        CLOUDY    75  72  88 SW8       29.78R
ROLLA          PTSUNNY   66  66 100 N6        29.85R
 ***** THE ABOVE OBSERVATIONS ARE NON NWS ARE NOT QUALITY
       CONTROLLED AND MAY MIS-REPORT RAIN FOR SNOW...
$$

  *****  WEATHER ACROSS NORTHERN MINNESOTA  *****

CITY           SKY/WX    TMP DP  RH WIND       PRES   REMARKS
FLAG ISLAND    CLOUDY    64  61  88 SE8       29.86R
WARROAD        CLOUDY    66  63  88 E9        29.86S
ROSEAU         CLOUDY    66  61  82 E10       29.84S
HALLOCK          N/A     72  66  83 SE5       29.79R
THF RVR FALLS  CLOUDY    70  64  83 E6        29.81F
BAUDETTE       CLOUDY    66  61  84 SE8       29.86R
WASKISH        CLOUDY    66  63  88 E3        29.85S
CROOKSTON      MOSUNNY   73  66  78 SE7       29.79S
$$
  *****  WEATHER ACROSS CENTRAL AND WEST MINNESOTA  *****

CITY           SKY/WX    TMP DP  RH WIND       PRES   REMARKS
FOSSTON        PTSUNNY   72  66  83 CALM      29.81F
BEMIDJI        CLOUDY    66  63  87 E10       29.82F
PARK RAPIDS    CLOUDY    73  65  75 E8        29.81S
ELBOW LAKE     CLOUDY    71  68  90 SE8       29.77R
WADENA         CLOUDY    70  66  88 E3        29.80S
DETROIT LAKES  CLOUDY    70  64  83 SE8       29.81S
MOORHEAD       CLOUDY    73  72  94 SE5       29.77S
FERGUS FALLS   CLOUDY    73  64  73 SE6       29.77R
MORRIS MN      SUNNY     75  72  88 S8        29.75R
STAPLES        CLOUDY    72  64  78 CALM      29.79F
$$
  *****  WEATHER ELSEWHERE ACROSS MINNESOTA  *****

CITY           SKY/WX    TMP DP  RH WIND       PRES   REMARKS
DULUTH         CLOUDY    63  60  90 E12       29.89R
INTRNTL FALLS  CLOUDY    66  59  78 SE10      29.88F
ELY            CLOUDY    66  57  72 E7        29.92S
CLOQUET        CLOUDY    63  61  94 E12       29.87R FOG
WHEATON        CLOUDY    72  66  83 S5        29.77R
BRAINERD       CLOUDY    69  66  90 VRB6      29.81S
HIBBING        PTSUNNY   69  60  73 E10       29.88S
ALEXANDRIA     CLOUDY    72  67  84 SE6       29.80R
SAINT CLOUD    CLOUDY    72  68  87 E6        29.78R
MINNEAPOLIS    CLOUDY    78  69  73 SE10      29.78R
$$

  *****  WEATHER ACROSS SOUTH DAKOTA  *****

CITY           SKY/WX    TMP DP  RH WIND       PRES   REMARKS
SIOUX FALLS    MOSUNNY   82  72  71 W7        29.77R
BROOKINGS      NOT AVBL
WATERTOWN      SUNNY     77  70  79 SW12      29.77S
HURON          SUNNY     80  68  66 NW10      29.78R
SISSETON         N/A     78  71  79 NW9       29.75R
ABERDEEN       PTSUNNY   72  67  84 NW9       29.78R
MITCHELL       MOSUNNY   78  72  81 W9        29.80S
PIERRE         MOSUNNY   75  65  70 NW8       29.85R
MOBRIDGE       MOSUNNY   73  66  78 N14       29.82S
RAPID CITY     MOSUNNY   75  57  53 NE9       29.98R
$$

  *****  SOME WEATHER IN NEARBY STATES *****

CITY           SKY/WX    TMP DP  RH WIND       PRES   REMARKS
GLASGOW MT     PTSUNNY   68  60  75 N6        29.97R
GREAT FALLS MT CLOUDY    56  52  86 N8        30.08R
CHEYENNE WY    SUNNY     73  44  35 W10       30.14S
SCOTTSBLUFF NE SUNNY     75  55  49 W7        30.02S
OMAHA NE       PTSUNNY   81  69  67 SE10      29.82S
DES MOINES IA  CLOUDY    78  72  81 VRB3      29.88R
DAVENPORT IA   CLOUDY    76  71  85 S8        29.94R
CHICAGO IL     CLOUDY    75  68  78 S9        29.94R
EAU CLAIRE WI  CLOUDY    70  68  93 E13       29.86R
LA CROSSE WI   CLOUDY    72  68  87 SE7       29.81F
$$

  *****  SOME NATIONAL WEATHER *****

CITY           SKY/WX    TMP DP  RH WIND       PRES   REMARKS
LA GUARDIA NY  PTSUNNY   80  61  52 S9        30.05S
RALEIGH NC     MOSUNNY   87  72  60 NW3       30.08F HX  93
ATLANTA GA     MOSUNNY   85  71  63 VRB5      30.17S HX  90
NEW ORLEANS LA PTSUNNY   90  75  61 S7        30.15R HX 100
OKLAHOMA CITY  SUNNY     88  70  55 S18G24    29.99R HX  93
ALBUQUERQUE NM MOSUNNY   76  42  29 NE3       30.18S
SALT LAKE CITY CLOUDY    72  49  44 S8        30.08R
LOS ANGELES CA PTSUNNY   70  61  73 SW7       29.96R
BOISE ID       PTSUNNY   69  42  37 CALM      30.00S
SEATTLE WA     CLOUDY    56  50  80 S7        30.06S
$$

*** WEATHER ACROSS MANITOBA...SASKATCHEWAN AND ONTARIO ***
                ***ONTARIO***

CITY           SKY/WX    TMP DP  RH WIND       PRES   REMARKS
GERALDTON      CLOUDY    64  61  88 SE6       30.02  FOG
THUNDER BAY    PTSUNNY   66  61  82 E8        29.97S
SIOUX LOOKOUT  CLOUDY    68  63  83 S5        29.94S
TORONTO        PTSUNNY   75  64  69 SW3       29.96S
BIG TROUT LK   SUNNY     73  61  64 S13G18    29.96S
PICKLE LAKE    CLOUDY    64  59  82 S5        29.98F
DRYDEN         MOSUNNY   68  59  73 SE13      29.93S
KENORA         PTSUNNY   68  61  77 SE8       29.89S
$$
                *** MANITOBA***

CITY           SKY/WX    TMP DP  RH WIND       PRES   REMARKS
BRANDON        PTSUNNY   66  64  94 CALM      29.85R
DAUPHIN        CLOUDY    64  63  94 N15       29.85R
ISLAND LAKE    PTSUNNY   77  63  61 S12G17    29.84S
PILOT MOUND      N/A     68  66  94 NE6         N/A
THE PAS        CLOUDY    61  55  82 NW14G20   29.91R
THOMPSON       CLOUDY    54  54 100 N10       29.85R
WINNIPEG       LGT RAIN  70  64  83 CALM      29.83R
LYNN LAKE      CLOUDY    55  52  88 MISG      29.96R
GILLAM         PTSUNNY   77  64  65 SW8       29.77S
$$
                ***SASKATCHEWAN***

CITY           SKY/WX    TMP DP  RH WIND       PRES   REMARKS
ESTEVAN        CLOUDY    64  63  94 NW10      29.91R
KINDERSLEY     CLOUDY    57  52  82 N12G17    30.09R
LLOYDMINSTER   NOT AVBL
PRINCE ALBERT  PTSUNNY   63  57  82 N8        30.03R
REGINA         PTSUNNY   61  55  82 N13G20    29.97R
YORKTON        CLOUDY    63  55  77 N12G22    29.92R
N. BATTLEFORD  CLOUDY    57  54  88 N7        30.10R
LA RONGE       PTSUNNY   57  52  82 NW10G17   30.04R
SASKATOON      CLOUDY    61  55  82 NE10      30.05R
SWIFT CURRENT  CLOUDY    59  55  88 NE10      30.02S
$$
NOTE: THESE ARE AUTOMATED STATIONS WITH LIMITED QUALITY CONTROL
      "FAIR" INDICATES FEW OR NO CLOUDS BELOW 12,000 FEET WITH NO
      SIGNIFICANT WEATHER AND/OR OBSTRUCTIONS TO VISIBILITY.
      SKY/WX - SKY CONDITION AND SIGNIFICANT WEATHER.
      TMP - AIR TEMPERATURE.    DP   - DEWPOINT TEMPERATURE.
      RH  - RELATIVE HUMIDITY.  PRES - PRESSURE.
      HX  - HEAT INDEX.         WCI  - WIND CHILL INDEX.
$



USA.gov is the U.S. government's official web portal to all federal, state and local government web resources and services.